• Em Portugal
  • Lista de países
  • Para 7 dias
  • Temperatura da água
  • Mapas de satélite
  • Mapa do tempo
  • Widgets de tempo
  • user-avatar
    Iniciar Sessão

    Previsão horária em Beldibi

    Hoje, 15 Dezembro, Sexta-feira

    Tempo Temperatura Precipitação Vento Pressão Humidade
    00:00 +14°C° 0 mm 2 m/s 762 mmHg 76%
    01:00 +14°C° 0 mm 2 m/s 762 mmHg 76%
    02:00 +14°C° 0 mm 2 m/s 762 mmHg 75%
    03:00 +14°C° 0 mm 2 m/s 762 mmHg 75%
    04:00 +13°C° 0 mm 2 m/s 763 mmHg 74%
    05:00 +13°C° 0 mm 2 m/s 763 mmHg 74%
    06:00 +14°C° 0 mm 2 m/s 763 mmHg 73%
    07:00 +14°C° 0 mm 2 m/s 763 mmHg 72%
    08:00 +14°C° 0 mm 2 m/s 763 mmHg 71%
    09:00 +16°C° 0 mm 2 m/s 763 mmHg 66%
    10:00 +19°C° 0 mm 1 m/s 764 mmHg 61%
    11:00 +20°C° 0 mm 1 m/s 764 mmHg 56%
    12:00 +20°C° 0 mm 1 m/s 763 mmHg 58%
    13:00 +20°C° 0 mm 2 m/s 763 mmHg 59%
    14:00 +20°C° 0 mm 2 m/s 763 mmHg 61%
    15:00 +19°C° 0 mm 1 m/s 763 mmHg 68%
    16:00 +18°C° 0 mm 1 m/s 763 mmHg 76%
    17:00 +16°C° 0 mm 1 m/s 764 mmHg 84%
    18:00 +15°C° 0 mm 1 m/s 764 mmHg 85%
    19:00 +15°C° 0 mm 1 m/s 764 mmHg 86%
    20:00 +15°C° 0 mm 1 m/s 765 mmHg 87%
    21:00 +15°C° 0 mm 1 m/s 765 mmHg 86%
    22:00 +15°C° 0 mm 1 m/s 765 mmHg 85%
    23:00 +15°C° 0 mm 1 m/s 765 mmHg 84%

    Amanhã, 16 Dezembro, Sábado

    Tempo Temperatura Precipitação Vento Pressão Humidade
    00:00 +15°C° 0 mm 1 m/s 765 mmHg 84%
    01:00 +15°C° 0 mm 1 m/s 766 mmHg 84%
    02:00 +15°C° 0 mm 1 m/s 766 mmHg 84%
    03:00 +15°C° 0 mm 1 m/s 766 mmHg 85%
    04:00 +15°C° 0 mm 1 m/s 765 mmHg 85%
    05:00 +15°C° 0 mm 1 m/s 765 mmHg 86%
    06:00 +15°C° 0 mm 1 m/s 765 mmHg 87%
    07:00 +15°C° 0 mm 1 m/s 766 mmHg 87%
    08:00 +15°C° 0 mm 2 m/s 766 mmHg 88%
    09:00 +16°C° 0,1 mm 2 m/s 766 mmHg 84%
    10:00 +17°C° 0,1 mm 2 m/s 765 mmHg 81%
    11:00 +18°C° 0,1 mm 2 m/s 765 mmHg 77%
    12:00 +18°C° 0,1 mm 2 m/s 765 mmHg 77%
    13:00 +18°C° 0,1 mm 2 m/s 764 mmHg 78%
    14:00 +18°C° 0,1 mm 2 m/s 764 mmHg 78%
    15:00 +18°C° 0,1 mm 2 m/s 764 mmHg 81%
    16:00 +17°C° 0,1 mm 2 m/s 764 mmHg 85%
    17:00 +18°C° 0,1 mm 1 m/s 764 mmHg 88%
    18:00 +17°C° 0,1 mm 2 m/s 764 mmHg 88%
    19:00 +17°C° 0,1 mm 2 m/s 764 mmHg 89%
    20:00 +16°C° 0,1 mm 2 m/s 765 mmHg 90%
    21:00 +16°C° 1,5 mm 2 m/s 765 mmHg 90%
    22:00 +16°C° 1,5 mm 2 m/s 765 mmHg 90%
    23:00 +16°C° 1,5 mm 2 m/s 765 mmHg 91%

    Depois de amanhã, 17 Dezembro, Domingo

    Tempo Temperatura Precipitação Vento Pressão Humidade
    00:00 +16°C° 0,2 mm 2 m/s 765 mmHg 90%
    01:00 +16°C° 0,2 mm 2 m/s 765 mmHg 90%
    02:00 +15°C° 0,2 mm 2 m/s 764 mmHg 90%
    03:00 +15°C° 0,1 mm 2 m/s 764 mmHg 90%
    04:00 +15°C° 0,1 mm 2 m/s 764 mmHg 90%
    05:00 +15°C° 0,1 mm 2 m/s 763 mmHg 91%
    06:00 +15°C° 0,1 mm 2 m/s 764 mmHg 90%
    07:00 +16°C° 0,1 mm 2 m/s 764 mmHg 90%
    08:00 +16°C° 0,1 mm 3 m/s 764 mmHg 89%
    09:00 +17°C° 0,2 mm 3 m/s 764 mmHg 86%
    10:00 +17°C° 0,2 mm 3 m/s 764 mmHg 83%
    11:00 +18°C° 0,2 mm 4 m/s 764 mmHg 80%
    12:00 +18°C° 0,2 mm 4 m/s 763 mmHg 80%
    13:00 +18°C° 0,2 mm 4 m/s 763 mmHg 79%
    14:00 +18°C° 0,2 mm 4 m/s 763 mmHg 79%
    15:00 +18°C° 0,3 mm 4 m/s 763 mmHg 82%
    16:00 +18°C° 0,3 mm 4 m/s 763 mmHg 85%
    17:00 +17°C° 0,3 mm 3 m/s 763 mmHg 88%
    18:00 +17°C° 0,5 mm 3 m/s 763 mmHg 89%
    19:00 +17°C° 0,5 mm 3 m/s 763 mmHg 89%
    20:00 +17°C° 0,5 mm 3 m/s 764 mmHg 90%
    21:00 +17°C° 0,4 mm 3 m/s 764 mmHg 90%
    22:00 +16°C° 0,4 mm 3 m/s 764 mmHg 91%
    23:00 +16°C° 0,4 mm 3 m/s 764 mmHg 91%

    18 Dezembro, Segunda-feira

    Tempo Temperatura Precipitação Vento Pressão Humidade
    00:00 +16°C° 0,4 mm 3 m/s 764 mmHg 91%
    01:00 +16°C° 0,4 mm 3 m/s 764 mmHg 91%
    02:00 +16°C° 0,4 mm 3 m/s 764 mmHg 91%
    03:00 +16°C° 0,4 mm 3 m/s 764 mmHg 91%
    04:00 +16°C° 0,4 mm 3 m/s 764 mmHg 91%
    05:00 +16°C° 0,4 mm 3 m/s 763 mmHg 91%
    06:00 +16°C° 0,4 mm 3 m/s 764 mmHg 91%
    07:00 +16°C° 0,4 mm 3 m/s 764 mmHg 90%
    08:00 +16°C° 0,4 mm 3 m/s 764 mmHg 90%
    09:00 +17°C° 0,5 mm 3 m/s 764 mmHg 86%
    10:00 +18°C° 0,5 mm 4 m/s 764 mmHg 81%
    11:00 +19°C° 0,5 mm 4 m/s 764 mmHg 77%
    12:00 +19°C° 0,6 mm 4 m/s 763 mmHg 76%
    13:00 +19°C° 0,6 mm 4 m/s 763 mmHg 75%
    14:00 +19°C° 0,6 mm 5 m/s 762 mmHg 74%
    15:00 +18°C° 0,5 mm 4 m/s 762 mmHg 77%
    16:00 +18°C° 0,5 mm 4 m/s 762 mmHg 81%
    17:00 +17°C° 0,5 mm 4 m/s 762 mmHg 84%
    18:00 +17°C° 0,3 mm 4 m/s 762 mmHg 85%
    19:00 +15°C° 0,3 mm 4 m/s 762 mmHg 85%
    20:00 +15°C° 0,3 mm 4 m/s 763 mmHg 85%
    21:00 +15°C° 0,2 mm 4 m/s 763 mmHg 84%
    22:00 +14°C° 0,2 mm 4 m/s 763 mmHg 83%
    23:00 +14°C° 0,2 mm 4 m/s 763 mmHg 82%

    19 Dezembro, Terça-feira

    Tempo Temperatura Precipitação Vento Pressão Humidade
    00:00 +14°C° 0,1 mm 4 m/s 763 mmHg 80%
    01:00 +14°C° 0,1 mm 4 m/s 763 mmHg 78%
    02:00 +13°C° 0,1 mm 4 m/s 763 mmHg 76%
    03:00 +13°C° 0,1 mm 3 m/s 763 mmHg 75%
    04:00 +13°C° 0,1 mm 3 m/s 764 mmHg 74%
    05:00 +12°C° 0,1 mm 3 m/s 764 mmHg 73%
    06:00 +12°C° 0 mm 3 m/s 764 mmHg 73%
    07:00 +12°C° 0 mm 3 m/s 765 mmHg 73%
    08:00 +12°C° 0 mm 3 m/s 765 mmHg 72%
    09:00 +14°C° 0 mm 3 m/s 765 mmHg 66%
    10:00 +16°C° 0 mm 3 m/s 765 mmHg 61%
    11:00 +17°C° 0 mm 3 m/s 765 mmHg 55%
    12:00 +17°C° 0 mm 3 m/s 765 mmHg 53%
    13:00 +18°C° 0 mm 2 m/s 764 mmHg 51%
    14:00 +18°C° 0 mm 2 m/s 764 mmHg 50%
    15:00 +17°C° 0 mm 2 m/s 764 mmHg 55%
    16:00 +16°C° 0 mm 1 m/s 764 mmHg 61%
    17:00 +14°C° 0 mm 1 m/s 764 mmHg 67%
    18:00 +14°C° 0 mm 1 m/s 764 mmHg 68%
    19:00 +14°C° 0 mm 1 m/s 765 mmHg 70%
    20:00 +13°C° 0 mm 1 m/s 765 mmHg 71%
    21:00 +13°C° 0 mm 1 m/s 765 mmHg 72%
    22:00 +13°C° 0 mm 1 m/s 765 mmHg 74%
    23:00 +13°C° 0 mm 1 m/s 765 mmHg 75%

    20 Dezembro, Quarta-feira

    Tempo Temperatura Precipitação Vento Pressão Humidade
    00:00 +13°C° 0 mm 2 m/s 765 mmHg 75%
    01:00 +13°C° 0 mm 2 m/s 764 mmHg 75%
    02:00 +13°C° 0 mm 2 m/s 764 mmHg 75%
    03:00 +13°C° 0 mm 2 m/s 764 mmHg 75%
    04:00 +13°C° 0 mm 2 m/s 764 mmHg 75%
    05:00 +13°C° 0 mm 1 m/s 764 mmHg 75%
    06:00 +13°C° 0 mm 1 m/s 764 mmHg 75%
    07:00 +14°C° 0 mm 1 m/s 764 mmHg 74%
    08:00 +14°C° 0 mm 1 m/s 764 mmHg 73%
    09:00 +14°C° 0,1 mm 1 m/s 764 mmHg 72%
    10:00 +15°C° 0,1 mm 2 m/s 764 mmHg 70%
    11:00 +15°C° 0,1 mm 2 m/s 764 mmHg 69%
    12:00 +15°C° 0,3 mm 2 m/s 763 mmHg 70%
    13:00 +15°C° 0,3 mm 1 m/s 763 mmHg 71%
    14:00 +15°C° 0,3 mm 1 m/s 763 mmHg 72%
    15:00 +15°C° 0,6 mm 1 m/s 763 mmHg 76%
    16:00 +14°C° 0,6 mm 2 m/s 763 mmHg 79%
    17:00 +14°C° 0,6 mm 2 m/s 763 mmHg 83%
    18:00 +14°C° 0,4 mm 2 m/s 763 mmHg 83%
    19:00 +14°C° 0,4 mm 2 m/s 763 mmHg 84%
    20:00 +13°C° 0,4 mm 2 m/s 764 mmHg 85%
    21:00 +13°C° 0,3 mm 2 m/s 763 mmHg 84%
    22:00 +13°C° 0,3 mm 2 m/s 763 mmHg 84%
    23:00 +13°C° 0,3 mm 2 m/s 763 mmHg 84%
    Mostrar mais